Time,TemperatureF,DewpointF,PressureIn,WindDirection,WindDirectionDegrees,WindSpeedMPH,WindSpeedGustMPH,Humidity,HourlyPrecipIn,Conditions,Clouds,dailyrainin,SoftwareType,DateUTC
2013-04-07 00:00:00,62.4,41.8,29.73,South,180,15.8,17.0,47,0.00,,,0.15,WUHU216HW,2013-04-07 04:00:00,
2013-04-07 00:01:00,62.4,41.8,29.73,South,180,15.8,17.0,47,0.00,,,0.00,WUHU216HW,2013-04-07 04:01:00,
2013-04-07 00:06:00,62.4,41.8,29.73,South,180,14.5,16.3,47,0.00,,,0.00,WUHU216HW,2013-04-07 04:06:00,
2013-04-07 00:12:00,62.4,41.8,29.73,SSW,203,6.9,14.5,47,0.00,,,0.00,WUHU216HW,2013-04-07 04:12:00,
2013-04-07 00:17:00,62.4,41.8,29.72,SSE,158,14.9,14.9,47,0.00,,,0.00,WUHU216HW,2013-04-07 04:17:00,
2013-04-07 00:22:00,62.6,41.9,29.72,SSE,158,5.5,14.9,47,0.00,,,0.00,WUHU216HW,2013-04-07 04:22:00,
2013-04-07 00:27:00,62.6,41.9,29.72,SW,225,17.4,22.3,47,0.02,,,0.02,WUHU216HW,2013-04-07 04:27:00,
2013-04-07 00:32:00,62.6,41.3,29.71,South,180,20.8,22.3,46,0.02,,,0.02,WUHU216HW,2013-04-07 04:32:00,
2013-04-07 00:37:00,62.7,41.5,29.71,South,180,19.6,20.8,46,0.02,,,0.02,WUHU216HW,2013-04-07 04:37:00,
2013-04-07 00:42:00,62.7,40.9,29.72,South,180,14.0,20.8,45,0.02,,,0.02,WUHU216HW,2013-04-07 04:42:00,
2013-04-07 00:47:00,62.9,41.1,29.71,SSE,158,19.6,19.6,45,0.02,,,0.02,WUHU216HW,2013-04-07 04:47:00,
2013-04-07 00:52:00,62.9,41.1,29.71,SSW,203,15.6,19.6,45,0.02,,,0.02,WUHU216HW,2013-04-07 04:52:00,
2013-04-07 00:57:00,63.1,41.3,29.71,SSW,203,22.3,22.3,45,0.02,,,0.02,WUHU216HW,2013-04-07 04:57:00,
2013-04-07 01:03:00,63.1,40.7,29.70,SSE,158,21.0,22.3,44,0.02,,,0.02,WUHU216HW,2013-04-07 05:03:00,
2013-04-07 01:08:00,63.3,40.8,29.70,SSW,203,22.1,22.3,44,0.02,,,0.02,WUHU216HW,2013-04-07 05:08:00,
2013-04-07 01:13:00,63.3,40.8,29.71,South,180,18.7,22.1,44,0.02,,,0.02,WUHU216HW,2013-04-07 05:13:00,
2013-04-07 01:18:00,63.3,40.8,29.71,WSW,248,12.9,22.1,44,0.02,,,0.02,WUHU216HW,2013-04-07 05:18:00,
2013-04-07 01:23:00,63.5,40.4,29.72,SSW,203,19.6,19.6,43,0.00,,,0.02,WUHU216HW,2013-04-07 05:23:00,
2013-04-07 01:28:00,63.6,40.6,29.74,SSW,203,18.3,19.6,43,0.00,,,0.02,WUHU216HW,2013-04-07 05:28:00,
2013-04-07 01:33:00,63.1,43.0,29.74,WSW,248,17.0,19.6,48,0.00,,,0.02,WUHU216HW,2013-04-07 05:33:00,
2013-04-07 01:39:00,60.4,41.7,29.74,SSW,203,22.1,22.1,50,0.32,,,0.35,WUHU216HW,2013-04-07 05:39:00,
2013-04-07 01:44:00,58.1,43.3,29.74,SSW,203,17.4,22.1,58,0.37,,,0.39,WUHU216HW,2013-04-07 05:44:00,
2013-04-07 01:49:00,56.8,43.5,29.74,SSW,203,14.3,22.1,61,0.39,,,0.40,WUHU216HW,2013-04-07 05:49:00,
2013-04-07 01:54:00,55.5,42.7,29.73,SW,225,13.1,18.1,62,0.39,,,0.40,WUHU216HW,2013-04-07 05:54:00,
2013-04-07 01:59:00,54.6,43.1,29.73,SSW,203,14.7,18.1,65,0.39,,,0.40,WUHU216HW,2013-04-07 05:59:00,
2013-04-07 02:04:00,53.7,43.0,29.72,South,180,10.5,14.7,67,0.39,,,0.40,WUHU216HW,2013-04-07 06:04:00,
2013-04-07 02:09:00,53.4,43.4,29.72,SSW,203,14.5,14.7,69,0.39,,,0.40,WUHU216HW,2013-04-07 06:09:00,
2013-04-07 02:14:00,53.7,43.8,29.73,WSW,248,5.5,14.5,69,0.39,,,0.40,WUHU216HW,2013-04-07 06:14:00,
2013-04-07 02:19:00,54.1,44.1,29.73,South,180,9.1,11.4,69,0.39,,,0.40,WUHU216HW,2013-04-07 06:19:00,
2013-04-07 02:24:00,54.5,44.5,29.73,SSW,203,6.7,14.0,69,0.39,,,0.40,WUHU216HW,2013-04-07 06:24:00,
2013-04-07 02:29:00,54.8,44.9,29.72,South,180,19.6,19.6,69,0.39,,,0.40,WUHU216HW,2013-04-07 06:29:00,
2013-04-07 02:35:00,55.2,45.2,29.71,South,180,8.0,19.6,69,0.06,,,0.40,WUHU216HW,2013-04-07 06:35:00,
2013-04-07 02:40:00,55.7,45.7,29.71,South,180,12.0,13.4,69,0.02,,,0.40,WUHU216HW,2013-04-07 06:40:00,
2013-04-07 02:45:00,56.1,46.0,29.70,South,180,14.7,14.7,69,0.00,,,0.40,WUHU216HW,2013-04-07 06:45:00,
2013-04-07 02:50:00,56.4,46.0,29.70,South,180,13.6,19.4,68,0.00,,,0.40,WUHU216HW,2013-04-07 06:50:00,
2013-04-07 02:55:00,56.4,45.6,29.69,SSW,203,17.8,19.4,67,0.00,,,0.40,WUHU216HW,2013-04-07 06:55:00,
2013-04-07 03:00:00,56.8,45.9,29.70,SSW,203,22.3,22.3,67,0.00,,,0.40,WUHU216HW,2013-04-07 07:00:00,
2013-04-07 03:05:00,57.0,46.1,29.69,South,180,10.2,22.3,67,0.00,,,0.40,WUHU216HW,2013-04-07 07:05:00,
2013-04-07 03:10:00,57.3,45.8,29.69,SSW,203,19.4,22.3,66,0.00,,,0.40,WUHU216HW,2013-04-07 07:10:00,
2013-04-07 03:16:00,57.5,45.8,29.69,SW,225,15.4,19.4,65,0.00,,,0.40,WUHU216HW,2013-04-07 07:16:00,
2013-04-07 03:21:00,57.5,45.4,29.69,South,180,12.9,19.4,64,0.00,,,0.40,WUHU216HW,2013-04-07 07:21:00,
2013-04-07 03:26:00,57.7,45.6,29.69,SSW,203,18.1,18.1,64,0.00,,,0.40,WUHU216HW,2013-04-07 07:26:00,
2013-04-07 03:31:00,57.7,45.6,29.70,SSW,203,17.2,22.3,64,0.00,,,0.40,WUHU216HW,2013-04-07 07:31:00,
2013-04-07 03:36:00,57.5,45.4,29.69,South,180,12.7,22.3,64,0.00,,,0.40,WUHU216HW,2013-04-07 07:36:00,
2013-04-07 03:41:00,57.3,45.2,29.70,SSW,203,14.9,22.1,64,0.00,,,0.40,WUHU216HW,2013-04-07 07:41:00,
2013-04-07 03:46:00,57.0,45.3,29.70,SW,225,12.5,22.1,65,0.00,,,0.40,WUHU216HW,2013-04-07 07:46:00,
2013-04-07 03:52:00,56.8,45.1,29.71,SW,225,17.2,22.1,65,0.00,,,0.40,WUHU216HW,2013-04-07 07:52:00,
2013-04-07 03:57:00,56.4,45.2,29.71,SW,225,10.2,17.2,66,0.00,,,0.40,WUHU216HW,2013-04-07 07:57:00,
2013-04-07 04:02:00,56.1,44.8,29.72,SW,225,10.5,17.2,66,0.00,,,0.40,WUHU216HW,2013-04-07 08:02:00,
2013-04-07 04:07:00,55.5,44.7,29.72,WSW,248,17.8,17.8,67,0.00,,,0.40,WUHU216HW,2013-04-07 08:07:00,
2013-04-07 04:12:00,55.0,44.6,29.72,SW,225,14.9,23.2,68,0.00,,,0.40,WUHU216HW,2013-04-07 08:12:00,
2013-04-07 04:17:00,54.6,44.7,29.72,SSW,203,10.0,23.2,69,0.00,,,0.40,WUHU216HW,2013-04-07 08:17:00,
2013-04-07 04:22:00,54.3,44.7,29.73,SSW,203,6.7,18.3,70,0.00,,,0.40,WUHU216HW,2013-04-07 08:22:00,
2013-04-07 04:27:00,53.7,44.5,29.73,WSW,248,6.4,10.5,71,0.00,,,0.40,WUHU216HW,2013-04-07 08:27:00,
2013-04-07 04:32:00,53.2,44.4,29.73,SE,135,11.4,11.4,72,0.00,,,0.40,WUHU216HW,2013-04-07 08:32:00,
2013-04-07 04:37:00,52.8,44.4,29.73,West,270,12.3,22.1,73,0.00,,,0.40,WUHU216HW,2013-04-07 08:37:00,
2013-04-07 04:42:00,52.7,44.6,29.74,SW,225,15.6,22.1,74,0.00,,,0.40,WUHU216HW,2013-04-07 08:42:00,
2013-04-07 04:47:00,51.9,44.3,29.74,SSW,203,8.2,15.8,75,0.00,,,0.40,WUHU216HW,2013-04-07 08:47:00,
2013-04-07 04:52:00,51.4,43.7,29.74,South,180,11.4,15.8,75,0.00,,,0.40,WUHU216HW,2013-04-07 08:52:00,
2013-04-07 04:57:00,50.7,43.7,29.74,WSW,248,3.1,11.4,77,0.00,,,0.40,WUHU216HW,2013-04-07 08:57:00,
2013-04-07 05:02:00,50.3,43.7,29.75,SW,225,8.5,12.9,78,0.00,,,0.40,WUHU216HW,2013-04-07 09:02:00,
2013-04-07 05:07:00,49.8,43.1,29.75,WSW,248,8.2,12.9,78,0.00,,,0.40,WUHU216HW,2013-04-07 09:07:00,
2013-04-07 05:13:00,49.6,43.0,29.76,WNW,293,7.1,12.9,78,0.00,,,0.40,WUHU216HW,2013-04-07 09:13:00,
2013-04-07 05:18:00,48.9,42.6,29.76,WSW,248,11.8,12.9,79,0.00,,,0.40,WUHU216HW,2013-04-07 09:18:00,
2013-04-07 05:23:00,48.7,42.8,29.77,WNW,293,4.4,11.8,80,0.00,,,0.40,WUHU216HW,2013-04-07 09:23:00,
2013-04-07 05:28:00,48.2,42.2,29.77,West,270,8.7,11.8,80,0.00,,,0.40,WUHU216HW,2013-04-07 09:28:00,
2013-04-07 05:33:00,47.6,41.7,29.78,WSW,248,6.0,8.7,80,0.00,,,0.40,WUHU216HW,2013-04-07 09:33:00,
2013-04-07 05:38:00,47.1,41.2,29.78,SW,225,5.1,6.0,80,0.00,,,0.40,WUHU216HW,2013-04-07 09:38:00,
2013-04-07 05:43:00,46.5,40.8,29.78,SSW,203,6.9,6.9,80,0.00,,,0.40,WUHU216HW,2013-04-07 09:43:00,
2013-04-07 05:48:00,46.2,40.7,29.78,SW,225,10.2,10.2,81,0.00,,,0.40,WUHU216HW,2013-04-07 09:48:00,
2013-04-07 05:53:00,46.2,40.7,29.79,SW,225,5.5,10.2,81,0.00,,,0.40,WUHU216HW,2013-04-07 09:53:00,
2013-04-07 05:58:00,46.2,41.0,29.80,SSW,203,7.8,10.2,82,0.00,,,0.40,WUHU216HW,2013-04-07 09:58:00,
2013-04-07 06:03:00,46.0,40.5,29.80,West,270,0.0,8.7,81,0.00,,,0.40,WUHU216HW,2013-04-07 10:03:00,
2013-04-07 06:09:00,46.0,40.5,29.80,West,270,3.8,9.1,81,0.00,,,0.40,WUHU216HW,2013-04-07 10:09:00,
2013-04-07 06:14:00,45.6,40.2,29.80,SW,225,6.4,9.1,81,0.00,,,0.40,WUHU216HW,2013-04-07 10:14:00,
2013-04-07 06:19:00,45.3,39.8,29.81,SW,225,3.1,6.4,81,0.00,,,0.40,WUHU216HW,2013-04-07 10:19:00,
2013-04-07 06:24:00,45.3,40.1,29.81,South,180,8.9,8.9,82,0.00,,,0.40,WUHU216HW,2013-04-07 10:24:00,
2013-04-07 06:29:00,45.3,40.1,29.81,SW,225,5.1,8.9,82,0.00,,,0.40,WUHU216HW,2013-04-07 10:29:00,
2013-04-07 06:34:00,45.5,40.3,29.82,SE,135,11.4,11.4,82,0.00,,,0.40,WUHU216HW,2013-04-07 10:34:00,
2013-04-07 06:39:00,45.6,40.2,29.82,SSW,203,2.9,11.4,81,0.00,,,0.40,WUHU216HW,2013-04-07 10:39:00,
2013-04-07 06:44:00,45.6,40.2,29.82,WSW,248,5.5,6.9,81,0.00,,,0.40,WUHU216HW,2013-04-07 10:44:00,
2013-04-07 06:49:00,45.6,40.2,29.83,South,180,6.9,8.7,81,0.00,,,0.40,WUHU216HW,2013-04-07 10:49:00,
2013-04-07 06:55:00,45.6,40.2,29.83,South,180,8.2,10.5,81,0.00,,,0.40,WUHU216HW,2013-04-07 10:55:00,
2013-04-07 07:00:00,45.6,40.2,29.84,SW,225,3.3,10.5,81,0.00,,,0.40,WUHU216HW,2013-04-07 11:00:00,
2013-04-07 07:05:00,46.0,40.5,29.84,WSW,248,4.2,12.9,81,0.00,,,0.40,WUHU216HW,2013-04-07 11:05:00,
2013-04-07 07:10:00,46.0,40.2,29.84,WNW,293,6.9,12.9,80,0.00,,,0.40,WUHU216HW,2013-04-07 11:10:00,
2013-04-07 07:15:00,46.2,40.4,29.85,WNW,293,2.4,6.9,80,0.00,,,0.40,WUHU216HW,2013-04-07 11:15:00,
2013-04-07 07:20:00,46.2,40.4,29.86,West,270,6.0,6.9,80,0.00,,,0.40,WUHU216HW,2013-04-07 11:20:00,
2013-04-07 07:25:00,46.0,40.2,29.87,WSW,248,2.2,6.2,80,0.00,,,0.40,WUHU216HW,2013-04-07 11:25:00,
2013-04-07 07:30:00,45.6,39.5,29.87,West,270,2.9,6.0,79,0.00,,,0.40,WUHU216HW,2013-04-07 11:30:00,
2013-04-07 07:35:00,45.5,39.3,29.88,SSW,203,8.0,8.0,79,0.00,,,0.40,WUHU216HW,2013-04-07 11:35:00,
2013-04-07 07:40:00,45.3,39.2,29.88,WSW,248,3.5,8.0,79,0.00,,,0.40,WUHU216HW,2013-04-07 11:40:00,
2013-04-07 07:45:00,45.1,39.0,29.89,WSW,248,4.2,8.0,79,0.00,,,0.40,WUHU216HW,2013-04-07 11:45:00,
2013-04-07 07:50:00,45.1,39.0,29.90,WNW,293,4.4,7.3,79,0.00,,,0.40,WUHU216HW,2013-04-07 11:50:00,
2013-04-07 07:55:00,44.9,38.8,29.90,WNW,293,6.4,7.3,79,0.00,,,0.40,WUHU216HW,2013-04-07 11:55:00,
2013-04-07 08:00:00,44.7,38.6,29.91,NW,315,2.0,6.4,79,0.00,,,0.40,WUHU216HW,2013-04-07 12:00:00,
2013-04-07 08:06:00,44.6,38.4,29.91,WNW,293,4.6,5.3,79,0.00,,,0.40,WUHU216HW,2013-04-07 12:06:00,
2013-04-07 08:11:00,44.4,38.3,29.92,NW,315,3.1,4.6,79,0.00,,,0.40,WUHU216HW,2013-04-07 12:11:00,
2013-04-07 08:16:00,44.2,38.1,29.92,NW,315,0.0,4.0,79,0.00,,,0.40,WUHU216HW,2013-04-07 12:16:00,
2013-04-07 08:21:00,44.4,38.3,29.92,NW,315,1.3,4.0,79,0.00,,,0.40,WUHU216HW,2013-04-07 12:21:00,
2013-04-07 08:26:00,44.2,38.1,29.92,NW,315,1.3,4.6,79,0.00,,,0.40,WUHU216HW,2013-04-07 12:26:00,
2013-04-07 08:31:00,44.2,38.1,29.93,WNW,293,4.0,4.6,79,0.00,,,0.40,WUHU216HW,2013-04-07 12:31:00,
2013-04-07 08:37:00,44.2,37.6,29.93,WSW,248,3.3,4.0,79,0.00,,,0.40,WUHU216HW,2013-04-07 12:37:00,
2013-04-07 08:42:00,44.0,37.6,29.93,WNW,293,2.6,3.3,78,0.00,,,0.40,WUHU216HW,2013-04-07 12:42:00,
2013-04-07 08:47:00,44.2,38.1,29.93,NNW,338,2.4,3.1,79,0.00,,,0.40,WUHU216HW,2013-04-07 12:47:00,
2013-04-07 08:52:00,44.0,37.6,29.94,West,270,3.5,3.5,79,0.00,,,0.40,WUHU216HW,2013-04-07 12:52:00,
2013-04-07 08:57:00,44.2,37.7,29.94,NNW,338,1.5,3.5,78,0.00,,,0.40,WUHU216HW,2013-04-07 12:57:00,
2013-04-07 09:02:00,44.2,37.7,29.94,WNW,293,4.2,7.8,78,0.00,,,0.40,WUHU216HW,2013-04-07 13:02:00,
2013-04-07 09:07:00,44.2,37.7,29.94,West,270,3.3,7.8,78,0.00,,,0.40,WUHU216HW,2013-04-07 13:07:00,
2013-04-07 09:12:00,44.4,37.9,29.95,WNW,293,2.9,5.8,78,0.00,,,0.40,WUHU216HW,2013-04-07 13:12:00,
2013-04-07 09:18:00,44.4,37.6,29.95,NNW,338,0.8,4.9,77,0.00,,,0.40,WUHU216HW,2013-04-07 13:18:00,
2013-04-07 09:23:00,44.4,37.6,29.95,WNW,293,5.8,5.8,77,0.00,,,0.40,WUHU216HW,2013-04-07 13:23:00,
2013-04-07 09:28:00,44.7,37.6,29.96,WNW,293,2.9,5.8,76,0.00,,,0.40,WUHU216HW,2013-04-07 13:28:00,
2013-04-07 09:33:00,44.9,37.8,29.96,NNW,338,4.4,5.5,76,0.00,,,0.40,WUHU216HW,2013-04-07 13:33:00,
2013-04-07 09:38:00,44.9,37.4,29.96,NW,315,6.0,6.0,75,0.00,,,0.40,WUHU216HW,2013-04-07 13:38:00,
2013-04-07 09:43:00,45.1,37.6,29.96,NW,315,5.8,6.0,75,0.00,,,0.40,WUHU216HW,2013-04-07 13:43:00,
2013-04-07 09:48:00,45.5,38.0,29.97,North,0,2.4,6.0,75,0.00,,,0.40,WUHU216HW,2013-04-07 13:48:00,
2013-04-07 09:53:00,45.6,38.2,29.97,West,270,3.5,4.6,75,0.00,,,0.40,WUHU216HW,2013-04-07 13:53:00,
2013-04-07 09:58:00,46.0,38.2,29.97,West,270,3.1,4.6,74,0.00,,,0.40,WUHU216HW,2013-04-07 13:58:00,
2013-04-07 10:03:00,46.0,38.2,29.98,WNW,293,6.0,6.7,74,0.00,,,0.40,WUHU216HW,2013-04-07 14:03:00,
2013-04-07 10:08:00,46.0,38.2,29.98,WNW,293,5.1,6.7,74,0.00,,,0.40,WUHU216HW,2013-04-07 14:08:00,
2013-04-07 10:13:00,45.8,38.0,29.98,West,270,2.6,6.0,74,0.00,,,0.40,WUHU216HW,2013-04-07 14:13:00,
2013-04-07 10:19:00,45.6,37.5,29.98,NNW,338,5.3,5.3,73,0.00,,,0.40,WUHU216HW,2013-04-07 14:19:00,
2013-04-07 10:24:00,45.6,37.5,29.98,West,270,4.6,5.3,73,0.00,,,0.40,WUHU216HW,2013-04-07 14:24:00,
2013-04-07 10:29:00,45.6,37.5,29.98,WNW,293,10.0,10.0,73,0.00,,,0.40,WUHU216HW,2013-04-07 14:29:00,
2013-04-07 10:34:00,45.6,37.5,29.98,WNW,293,4.4,10.0,73,0.00,,,0.40,WUHU216HW,2013-04-07 14:34:00,
2013-04-07 10:39:00,46.0,37.8,29.98,West,270,3.1,10.0,73,0.00,,,0.40,WUHU216HW,2013-04-07 14:39:00,
2013-04-07 10:44:00,46.5,38.0,29.99,WNW,293,12.7,12.7,72,0.00,,,0.40,WUHU216HW,2013-04-07 14:44:00,
2013-04-07 10:49:00,46.7,37.8,29.99,West,270,4.0,12.7,71,0.00,,,0.40,WUHU216HW,2013-04-07 14:49:00,
2013-04-07 10:54:00,46.7,37.8,30.00,WNW,293,7.1,12.7,71,0.00,,,0.40,WUHU216HW,2013-04-07 14:54:00,
2013-04-07 11:00:00,46.5,37.3,29.99,NW,315,6.0,11.4,70,0.00,,,0.40,WUHU216HW,2013-04-07 15:00:00,
2013-04-07 11:05:00,46.5,37.3,30.00,NW,315,4.6,7.6,70,0.00,,,0.40,WUHU216HW,2013-04-07 15:05:00,
2013-04-07 11:10:00,46.5,36.9,30.00,NNW,338,7.8,7.8,69,0.00,,,0.40,WUHU216HW,2013-04-07 15:10:00,
2013-04-07 11:15:00,46.5,36.9,30.00,NNW,338,8.9,9.3,69,0.00,,,0.40,WUHU216HW,2013-04-07 15:15:00,
2013-04-07 11:20:00,46.9,37.3,30.01,West,270,3.5,10.2,69,0.00,,,0.40,WUHU216HW,2013-04-07 15:20:00,
2013-04-07 11:25:00,46.9,36.9,30.01,West,270,2.4,10.2,68,0.00,,,0.40,WUHU216HW,2013-04-07 15:25:00,
2013-04-07 11:30:00,46.9,36.9,30.02,WNW,293,9.6,9.6,68,0.00,,,0.40,WUHU216HW,2013-04-07 15:30:00,
2013-04-07 11:36:00,46.9,36.9,30.02,NNW,338,12.5,12.5,68,0.00,,,0.40,WUHU216HW,2013-04-07 15:36:00,
2013-04-07 11:41:00,47.1,37.0,30.02,NNW,338,6.7,12.5,68,0.00,,,0.40,WUHU216HW,2013-04-07 15:41:00,
2013-04-07 11:46:00,48.3,38.2,30.02,NNW,338,10.5,10.5,68,0.00,,,0.40,WUHU216HW,2013-04-07 15:46:00,
2013-04-07 11:52:00,49.6,38.6,30.03,North,0,8.9,11.6,66,0.00,,,0.40,WUHU216HW,2013-04-07 15:52:00,
2013-04-07 11:57:00,50.1,38.8,30.03,NNW,338,10.9,11.6,65,0.00,,,0.40,WUHU216HW,2013-04-07 15:57:00,
2013-04-07 12:02:00,50.3,38.5,30.03,NNW,338,5.8,10.9,64,0.00,,,0.40,WUHU216HW,2013-04-07 16:02:00,
2013-04-07 12:07:00,50.7,38.3,30.03,NW,315,1.5,10.9,63,0.00,,,0.40,WUHU216HW,2013-04-07 16:07:00,
2013-04-07 12:12:00,51.4,39.2,30.03,NNW,338,4.9,7.8,63,0.00,,,0.40,WUHU216HW,2013-04-07 16:12:00,
2013-04-07 12:17:00,51.9,39.2,30.03,North,0,8.2,8.9,62,0.00,,,0.40,WUHU216HW,2013-04-07 16:17:00,
2013-04-07 12:23:00,52.5,39.4,30.04,North,0,12.5,12.5,61,0.00,,,0.40,WUHU216HW,2013-04-07 16:23:00,
2013-04-07 12:28:00,53.2,39.7,30.04,NNW,338,5.3,12.5,60,0.00,,,0.40,WUHU216HW,2013-04-07 16:28:00,
2013-04-07 12:33:00,53.9,39.9,30.04,North,0,5.8,10.2,59,0.00,,,0.40,WUHU216HW,2013-04-07 16:33:00,
2013-04-07 12:38:00,53.9,39.4,30.04,NNW,338,8.9,10.2,58,0.00,,,0.40,WUHU216HW,2013-04-07 16:38:00,
2013-04-07 12:43:00,53.9,39.0,30.04,North,0,10.9,10.9,57,0.00,,,0.40,WUHU216HW,2013-04-07 16:43:00,
2013-04-07 12:48:00,53.9,39.0,30.05,North,0,7.8,10.9,57,0.00,,,0.40,WUHU216HW,2013-04-07 16:48:00,
2013-04-07 12:53:00,54.1,38.7,30.05,North,0,1.1,7.8,56,0.00,,,0.40,WUHU216HW,2013-04-07 16:53:00,
2013-04-07 12:58:00,54.3,38.4,30.05,North,0,10.5,13.1,55,0.00,,,0.40,WUHU216HW,2013-04-07 16:58:00,
2013-04-07 13:03:00,54.3,37.9,30.05,NNW,338,5.1,14.3,54,0.00,,,0.40,WUHU216HW,2013-04-07 17:03:00,
2013-04-07 13:08:00,54.3,37.9,30.05,NNW,338,9.6,14.3,54,0.00,,,0.40,WUHU216HW,2013-04-07 17:08:00,
2013-04-07 13:13:00,54.3,37.4,30.06,NNW,338,8.2,9.6,53,0.00,,,0.40,WUHU216HW,2013-04-07 17:13:00,
2013-04-07 13:18:00,54.3,37.4,30.06,North,0,11.8,11.8,53,0.00,,,0.40,WUHU216HW,2013-04-07 17:18:00,
2013-04-07 13:23:00,54.5,37.7,30.06,NE,45,3.8,11.8,53,0.00,,,0.40,WUHU216HW,2013-04-07 17:23:00,
2013-04-07 13:29:00,54.8,37.4,30.06,North,0,0.8,6.2,52,0.00,,,0.40,WUHU216HW,2013-04-07 17:29:00,
2013-04-07 13:34:00,54.8,37.4,30.06,NNW,338,5.1,8.9,52,0.00,,,0.40,WUHU216HW,2013-04-07 17:34:00,
2013-04-07 13:39:00,54.6,37.3,30.06,NNW,338,5.1,12.0,52,0.00,,,0.40,WUHU216HW,2013-04-07 17:39:00,
2013-04-07 13:44:00,54.6,37.3,30.06,North,0,10.5,12.0,52,0.00,,,0.40,WUHU216HW,2013-04-07 17:44:00,
2013-04-07 13:49:00,54.6,36.8,30.06,NNW,338,8.5,10.5,51,0.00,,,0.40,WUHU216HW,2013-04-07 17:49:00,
2013-04-07 13:54:00,54.6,36.8,30.06,North,0,9.1,15.8,51,0.00,,,0.40,WUHU216HW,2013-04-07 17:54:00,
2013-04-07 13:59:00,54.6,36.8,30.06,North,0,4.9,15.8,51,0.00,,,0.40,WUHU216HW,2013-04-07 17:59:00,
2013-04-07 14:04:00,55.0,37.1,30.06,NNW,338,9.8,9.8,51,0.00,,,0.40,WUHU216HW,2013-04-07 18:04:00,
2013-04-07 14:09:00,55.7,37.8,30.07,NW,315,6.9,10.2,51,0.00,,,0.40,WUHU216HW,2013-04-07 18:09:00,
2013-04-07 14:14:00,55.9,37.5,30.06,NNW,338,8.0,10.2,50,0.00,,,0.40,WUHU216HW,2013-04-07 18:14:00,
2013-04-07 14:19:00,55.7,37.4,30.07,NNW,338,12.9,12.9,50,0.00,,,0.40,WUHU216HW,2013-04-07 18:19:00,
2013-04-07 14:25:00,55.9,37.5,30.06,NNE,23,5.1,12.9,50,0.00,,,0.40,WUHU216HW,2013-04-07 18:25:00,
2013-04-07 14:30:00,56.3,37.3,30.06,WNW,293,5.5,8.0,49,0.00,,,0.40,WUHU216HW,2013-04-07 18:30:00,
2013-04-07 14:35:00,56.3,37.3,30.06,NNW,338,2.4,8.0,49,0.00,,,0.40,WUHU216HW,2013-04-07 18:35:00,
2013-04-07 14:40:00,57.0,38.0,30.06,NNW,338,10.2,10.2,49,0.00,,,0.40,WUHU216HW,2013-04-07 18:40:00,
2013-04-07 14:45:00,57.3,38.1,30.07,NW,315,3.5,10.2,48,0.00,,,0.40,WUHU216HW,2013-04-07 18:45:00,
2013-04-07 14:50:00,58.2,38.6,30.07,NNW,338,4.6,5.5,48,0.00,,,0.40,WUHU216HW,2013-04-07 18:50:00,
2013-04-07 14:55:00,58.8,38.5,30.07,NNW,338,10.5,10.5,47,0.00,,,0.40,WUHU216HW,2013-04-07 18:55:00,
2013-04-07 15:01:00,58.8,37.9,30.07,North,0,11.8,11.8,46,0.00,,,0.40,WUHU216HW,2013-04-07 19:01:00,
2013-04-07 15:06:00,58.6,37.8,30.07,NNW,338,8.5,11.8,46,0.00,,,0.40,WUHU216HW,2013-04-07 19:06:00,
2013-04-07 15:11:00,58.6,37.8,30.07,NNW,338,4.9,11.8,46,0.00,,,0.40,WUHU216HW,2013-04-07 19:11:00,
2013-04-07 15:16:00,58.8,37.9,30.07,North,0,15.2,15.2,46,0.00,,,0.40,WUHU216HW,2013-04-07 19:16:00,
2013-04-07 15:21:00,58.6,37.8,30.07,North,0,2.9,15.2,46,0.00,,,0.40,WUHU216HW,2013-04-07 19:21:00,
2013-04-07 15:26:00,58.8,37.9,30.07,NE,45,1.7,15.2,46,0.00,,,0.40,WUHU216HW,2013-04-07 19:26:00,
2013-04-07 15:31:00,59.0,37.5,30.07,NNE,23,3.8,3.8,45,0.00,,,0.40,WUHU216HW,2013-04-07 19:31:00,
2013-04-07 15:36:00,59.0,37.5,30.07,NNW,338,10.7,10.7,45,0.00,,,0.40,WUHU216HW,2013-04-07 19:36:00,
2013-04-07 15:41:00,59.0,37.5,30.07,NNE,23,0.0,10.7,45,0.00,,,0.40,WUHU216HW,2013-04-07 19:41:00,
2013-04-07 15:46:00,59.3,37.9,30.07,NW,315,8.2,8.2,45,0.00,,,0.40,WUHU216HW,2013-04-07 19:46:00,
2013-04-07 15:51:00,59.7,38.2,30.07,NE,45,3.5,8.2,45,0.00,,,0.40,WUHU216HW,2013-04-07 19:51:00,
2013-04-07 15:57:00,60.0,37.9,30.07,NNW,338,3.1,4.0,44,0.00,,,0.40,WUHU216HW,2013-04-07 19:57:00,
2013-04-07 16:02:00,59.9,37.8,30.06,NNW,338,4.6,6.7,44,0.00,,,0.40,WUHU216HW,2013-04-07 20:02:00,
2013-04-07 16:07:00,59.7,37.6,30.07,NE,45,0.0,8.9,44,0.00,,,0.40,WUHU216HW,2013-04-07 20:07:00,
2013-04-07 16:12:00,59.5,37.4,30.07,NNE,23,0.8,8.9,44,0.00,,,0.40,WUHU216HW,2013-04-07 20:12:00,
2013-04-07 16:17:00,59.7,37.4,30.07,NNW,338,6.4,6.4,44,0.00,,,0.40,WUHU216HW,2013-04-07 20:17:00,
2013-04-07 16:22:00,59.5,37.4,30.07,North,0,0.0,6.4,44,0.00,,,0.40,WUHU216HW,2013-04-07 20:22:00,
2013-04-07 16:27:00,59.5,37.4,30.07,NE,45,1.5,8.2,44,0.00,,,0.40,WUHU216HW,2013-04-07 20:27:00,
2013-04-07 16:32:00,59.5,37.4,30.07,North,0,4.4,8.2,44,0.00,,,0.40,WUHU216HW,2013-04-07 20:32:00,
2013-04-07 16:37:00,59.3,37.3,30.07,NNW,338,6.7,6.7,44,0.00,,,0.40,WUHU216HW,2013-04-07 20:37:00,
2013-04-07 16:42:00,59.1,37.1,30.07,North,0,1.1,6.7,44,0.00,,,0.40,WUHU216HW,2013-04-07 20:42:00,
2013-04-07 16:48:00,59.0,37.0,30.08,NE,45,3.3,6.7,44,0.00,,,0.40,WUHU216HW,2013-04-07 20:48:00,
2013-04-07 16:53:00,58.8,36.8,30.07,NNW,338,4.6,4.6,44,0.00,,,0.40,WUHU216HW,2013-04-07 20:53:00,
2013-04-07 16:58:00,58.4,36.5,30.07,North,0,3.5,6.0,44,0.00,,,0.40,WUHU216HW,2013-04-07 20:58:00,
2013-04-07 17:03:00,58.1,36.7,30.06,NNE,23,0.8,6.0,45,0.00,,,0.40,WUHU216HW,2013-04-07 21:03:00,
2013-04-07 17:08:00,57.7,36.4,30.06,North,0,2.2,3.5,45,0.00,,,0.40,WUHU216HW,2013-04-07 21:08:00,
2013-04-07 17:13:00,57.0,35.7,30.06,North,0,0.6,2.2,45,0.00,,,0.40,WUHU216HW,2013-04-07 21:13:00,
2013-04-07 17:18:00,56.8,36.1,30.06,NE,45,2.2,2.2,46,0.00,,,0.40,WUHU216HW,2013-04-07 21:18:00,
2013-04-07 17:23:00,56.4,35.8,30.07,NNE,23,0.0,5.1,46,0.00,,,0.40,WUHU216HW,2013-04-07 21:23:00,
2013-04-07 17:28:00,56.4,35.8,30.07,NE,45,4.6,7.6,46,0.00,,,0.40,WUHU216HW,2013-04-07 21:28:00,
2013-04-07 17:34:00,56.3,36.2,30.07,NE,45,0.0,7.6,47,0.00,,,0.40,WUHU216HW,2013-04-07 21:34:00,
2013-04-07 17:39:00,56.3,36.2,30.07,NE,45,3.3,4.6,47,0.00,,,0.40,WUHU216HW,2013-04-07 21:39:00,
2013-04-07 17:44:00,56.3,36.2,30.07,NE,45,2.0,3.5,47,0.00,,,0.40,WUHU216HW,2013-04-07 21:44:00,
2013-04-07 17:49:00,56.4,36.4,30.08,North,0,2.0,3.3,47,0.00,,,0.40,WUHU216HW,2013-04-07 21:49:00,
2013-04-07 17:54:00,56.8,36.7,30.08,NNW,338,3.8,3.8,47,0.00,,,0.40,WUHU216HW,2013-04-07 21:54:00,
2013-04-07 17:59:00,56.8,36.1,30.08,NNW,338,3.8,3.8,46,0.00,,,0.40,WUHU216HW,2013-04-07 21:59:00,
2013-04-07 18:04:00,56.8,36.7,30.08,NE,45,0.8,3.8,47,0.00,,,0.40,WUHU216HW,2013-04-07 22:04:00,
2013-04-07 18:09:00,57.0,36.3,30.07,North,0,2.6,2.6,46,0.00,,,0.40,WUHU216HW,2013-04-07 22:09:00,
2013-04-07 18:14:00,56.8,36.1,30.07,NE,45,2.2,7.3,46,0.00,,,0.40,WUHU216HW,2013-04-07 22:14:00,
2013-04-07 18:20:00,56.3,36.2,30.07,NNW,338,4.4,7.3,47,0.00,,,0.40,WUHU216HW,2013-04-07 22:20:00,
2013-04-07 18:25:00,55.7,35.7,30.08,NNW,338,2.4,7.6,47,0.00,,,0.40,WUHU216HW,2013-04-07 22:25:00,
2013-04-07 18:30:00,55.2,35.2,30.08,NE,45,2.4,7.6,47,0.00,,,0.40,WUHU216HW,2013-04-07 22:30:00,
2013-04-07 18:35:00,55.2,35.2,30.07,North,0,1.5,4.2,47,0.00,,,0.40,WUHU216HW,2013-04-07 22:35:00,
2013-04-07 18:40:00,55.0,35.0,30.08,North,0,1.7,1.7,47,0.00,,,0.40,WUHU216HW,2013-04-07 22:40:00,
2013-04-07 18:45:00,55.0,35.6,30.07,NNE,23,0.0,1.7,48,0.00,,,0.40,WUHU216HW,2013-04-07 22:45:00,
2013-04-07 18:50:00,55.0,35.6,30.08,NNE,23,1.7,1.7,48,0.00,,,0.40,WUHU216HW,2013-04-07 22:50:00,
2013-04-07 18:55:00,54.6,35.2,30.08,NNE,23,0.0,1.7,48,0.00,,,0.40,WUHU216HW,2013-04-07 22:55:00,
2013-04-07 19:00:00,54.3,34.9,30.08,NE,45,1.3,3.1,48,0.00,,,0.40,WUHU216HW,2013-04-07 23:00:00,
2013-04-07 19:05:00,53.9,35.1,30.08,NE,45,2.9,3.1,49,0.00,,,0.40,WUHU216HW,2013-04-07 23:05:00,
2013-04-07 19:10:00,53.4,34.7,30.08,NE,45,0.0,2.9,49,0.00,,,0.40,WUHU216HW,2013-04-07 23:10:00,
2013-04-07 19:15:00,52.8,34.2,30.07,NE,45,0.0,2.9,49,0.00,,,0.40,WUHU216HW,2013-04-07 23:15:00,
2013-04-07 19:20:00,52.5,34.4,30.08,NE,45,0.0,1.7,50,0.00,,,0.40,WUHU216HW,2013-04-07 23:20:00,
2013-04-07 19:26:00,52.3,34.2,30.08,NE,45,1.3,3.1,50,0.00,,,0.40,WUHU216HW,2013-04-07 23:26:00,
2013-04-07 19:31:00,51.8,34.2,30.08,North,0,0.0,3.1,51,0.00,,,0.40,WUHU216HW,2013-04-07 23:31:00,
2013-04-07 19:36:00,51.6,34.0,30.08,NE,45,0.0,0.0,51,0.00,,,0.40,WUHU216HW,2013-04-07 23:36:00,
2013-04-07 19:41:00,51.4,34.3,30.08,NE,45,0.0,0.0,52,0.00,,,0.40,WUHU216HW,2013-04-07 23:41:00,
2013-04-07 19:46:00,51.2,34.2,30.08,ENE,68,2.9,2.9,52,0.00,,,0.40,WUHU216HW,2013-04-07 23:46:00,
2013-04-07 19:52:00,50.9,33.8,30.08,NE,45,0.0,2.9,52,0.00,,,0.40,WUHU216HW,2013-04-07 23:52:00,
2013-04-07 19:57:00,50.5,33.5,30.07,NE,45,0.0,0.8,52,0.00,,,0.40,WUHU216HW,2013-04-07 23:57:00,
2013-04-07 20:02:00,50.1,33.6,30.07,NE,45,0.0,2.6,53,0.00,,,0.40,WUHU216HW,2013-04-08 00:02:00,
2013-04-07 20:07:00,49.8,33.3,30.07,NE,45,1.3,2.6,53,0.00,,,0.40,WUHU216HW,2013-04-08 00:07:00,
2013-04-07 20:12:00,49.8,33.3,30.06,NE,45,3.3,3.3,53,0.00,,,0.40,WUHU216HW,2013-04-08 00:12:00,
2013-04-07 20:17:00,49.6,33.6,30.07,NE,45,0.0,3.3,54,0.00,,,0.40,WUHU216HW,2013-04-08 00:17:00,
2013-04-07 20:22:00,49.4,33.4,30.07,ENE,68,2.2,3.8,54,0.00,,,0.40,WUHU216HW,2013-04-08 00:22:00,
2013-04-07 20:27:00,49.1,33.1,30.06,NE,45,0.0,3.8,54,0.00,,,0.40,WUHU216HW,2013-04-08 00:27:00,
2013-04-07 20:32:00,48.7,33.2,30.06,NE,45,0.0,2.2,55,0.00,,,0.40,WUHU216HW,2013-04-08 00:32:00,
2013-04-07 20:37:00,48.5,33.0,30.06,NE,45,2.0,2.0,55,0.00,,,0.40,WUHU216HW,2013-04-08 00:37:00,
2013-04-07 20:43:00,48.3,32.8,30.06,NE,45,0.0,2.0,55,0.00,,,0.40,WUHU216HW,2013-04-08 00:43:00,
2013-04-07 20:48:00,48.0,33.0,30.06,NE,45,1.3,2.6,56,0.00,,,0.40,WUHU216HW,2013-04-08 00:48:00,
2013-04-07 20:53:00,48.0,33.0,30.07,NE,45,1.3,2.6,56,0.00,,,0.40,WUHU216HW,2013-04-08 00:53:00,
2013-04-07 20:58:00,47.8,32.8,30.06,NE,45,3.5,3.5,56,0.00,,,0.40,WUHU216HW,2013-04-08 00:58:00,
2013-04-07 21:03:00,47.4,32.9,30.06,NE,45,1.5,3.5,57,0.00,,,0.40,WUHU216HW,2013-04-08 01:03:00,
2013-04-07 21:08:00,47.3,32.7,30.06,NE,45,0.0,1.5,57,0.00,,,0.40,WUHU216HW,2013-04-08 01:08:00,
2013-04-07 21:13:00,47.1,32.5,30.07,NE,45,0.0,0.8,57,0.00,,,0.40,WUHU216HW,2013-04-08 01:13:00,
2013-04-07 21:18:00,47.1,32.5,30.06,NE,45,1.3,1.3,57,0.00,,,0.40,WUHU216HW,2013-04-08 01:18:00,
2013-04-07 21:23:00,46.9,32.4,30.06,NE,45,0.8,1.3,57,0.00,,,0.40,WUHU216HW,2013-04-08 01:23:00,
2013-04-07 21:28:00,46.5,32.5,30.07,NE,45,0.0,2.0,58,0.00,,,0.40,WUHU216HW,2013-04-08 01:28:00,
2013-04-07 21:33:00,46.5,32.5,30.07,NE,45,0.0,2.0,58,0.00,,,0.40,WUHU216HW,2013-04-08 01:33:00,
2013-04-07 21:38:00,46.2,32.1,30.07,NE,45,0.8,0.8,58,0.00,,,0.40,WUHU216HW,2013-04-08 01:38:00,
2013-04-07 21:43:00,46.2,32.1,30.07,NE,45,0.0,0.8,58,0.00,,,0.40,WUHU216HW,2013-04-08 01:43:00,
2013-04-07 21:48:00,45.8,31.8,30.07,NE,45,0.0,0.8,58,0.00,,,0.40,WUHU216HW,2013-04-08 01:48:00,
2013-04-07 21:54:00,45.6,32.1,30.07,NE,45,0.0,0.0,59,0.00,,,0.40,WUHU216HW,2013-04-08 01:54:00,
2013-04-07 21:59:00,45.3,31.8,30.07,NE,45,0.0,0.8,59,0.00,,,0.40,WUHU216HW,2013-04-08 01:59:00,
2013-04-07 22:04:00,45.1,31.6,30.08,NE,45,0.0,0.8,59,0.00,,,0.40,WUHU216HW,2013-04-08 02:04:00,
2013-04-07 22:09:00,44.9,31.9,30.07,NE,45,0.0,0.0,60,0.00,,,0.40,WUHU216HW,2013-04-08 02:09:00,
2013-04-07 22:14:00,44.7,31.8,30.07,ENE,68,0.0,0.0,60,0.00,,,0.40,WUHU216HW,2013-04-08 02:14:00,
2013-04-07 22:19:00,44.4,31.4,30.07,ENE,68,0.0,0.0,60,0.00,,,0.40,WUHU216HW,2013-04-08 02:19:00,
2013-04-07 22:24:00,44.4,31.4,30.07,NE,45,0.0,0.0,60,0.00,,,0.40,WUHU216HW,2013-04-08 02:24:00,
2013-04-07 22:29:00,44.2,31.2,30.07,NE,45,0.0,1.3,60,0.00,,,0.40,WUHU216HW,2013-04-08 02:29:00,
2013-04-07 22:34:00,43.8,31.2,30.07,ENE,68,0.0,1.3,61,0.00,,,0.40,WUHU216HW,2013-04-08 02:34:00,
2013-04-07 22:39:00,43.8,31.2,30.06,NE,45,0.0,0.8,61,0.00,,,0.40,WUHU216HW,2013-04-08 02:39:00,
2013-04-07 22:44:00,43.7,31.1,30.07,NE,45,0.6,0.6,61,0.00,,,0.40,WUHU216HW,2013-04-08 02:44:00,
2013-04-07 22:49:00,43.5,30.9,30.06,NE,45,0.0,1.1,61,0.00,,,0.40,WUHU216HW,2013-04-08 02:49:00,
2013-04-07 22:54:00,43.3,31.1,30.07,NE,45,0.8,1.1,62,0.00,,,0.40,WUHU216HW,2013-04-08 02:54:00,
2013-04-07 23:00:00,43.1,30.9,30.07,ENE,68,0.0,0.8,62,0.00,,,0.40,WUHU216HW,2013-04-08 03:00:00,
2013-04-07 23:05:00,42.9,30.7,30.07,NE,45,0.0,0.6,62,0.00,,,0.40,WUHU216HW,2013-04-08 03:05:00,
2013-04-07 23:10:00,42.9,30.7,30.07,NE,45,0.0,0.0,62,0.00,,,0.40,WUHU216HW,2013-04-08 03:10:00,
2013-04-07 23:15:00,42.6,30.8,30.06,NE,45,0.0,0.8,63,0.00,,,0.40,WUHU216HW,2013-04-08 03:15:00,
2013-04-07 23:20:00,42.6,30.8,30.06,NE,45,2.0,2.0,63,0.00,,,0.40,WUHU216HW,2013-04-08 03:20:00,
2013-04-07 23:25:00,42.6,30.8,30.06,NE,45,2.0,2.9,63,0.00,,,0.40,WUHU216HW,2013-04-08 03:25:00,
2013-04-07 23:30:00,42.4,30.6,30.07,NE,45,0.6,2.9,63,0.00,,,0.40,WUHU216HW,2013-04-08 03:30:00,
2013-04-07 23:36:00,42.4,30.6,30.06,ENE,68,1.1,1.1,63,0.00,,,0.40,WUHU216HW,2013-04-08 03:36:00,
2013-04-07 23:41:00,42.0,30.3,30.06,ENE,68,0.8,1.1,63,0.00,,,0.40,WUHU216HW,2013-04-08 03:41:00,
2013-04-07 23:46:00,41.9,30.5,30.05,ENE,68,0.0,0.8,64,0.00,,,0.40,WUHU216HW,2013-04-08 03:46:00,
2013-04-07 23:51:00,41.9,30.5,30.05,ENE,68,0.0,0.8,64,0.00,,,0.40,WUHU216HW,2013-04-08 03:51:00,
2013-04-07 23:57:00,41.7,30.3,30.05,ENE,68,0.0,0.0,64,0.00,,,0.40,WUHU216HW,2013-04-08 03:57:00,